Weather in Kora-Ursdon

Russia / Republic of North Ossetia — Alania     43°05′48″N   44°05′33″E
temp.,
°C
wind,
m/s
gust,
m/s
humid.,
%
clouds,
%
prec.,
mm/h
press.,
hPa
HPBL,
m
7 march, sun
sun700:00−1ssw4462100 0.0 101759
03:00−3ssw336790 0.0 101936
06:00−7ene129885 4.3 1022153
09:00−7ne239892 5.3 1022360
12:00−6ne3398100 1.8 1021424
15:00−5ne239399 2.7 1021380
18:00−9se118983 0.2 102221
21:00−10ssw118572 0.2 102322
8 march, mon
mon800:00−8ssw227629 0.0 102233
03:00−10sw118026 0.0 102222
06:00−9sw117835 0.0 102121
09:00−6ne118638 0.0 1020175
12:00−5ne2296100 0.0 1017316
15:00−4ne2193100 0.3 1016296
18:00−7ssw0194100 0.2 101727
21:00−8ssw227477 0.2 101923
9 march, tue
tue900:00−9ssw227111 0.0 101923
03:00−10sw227118 0.0 101924
06:00−10ssw327053 0.0 101924
09:00−5nne118039 0.0 1018273
12:00−4nne219139 0.1 1017399
15:00−3ne228845 0.3 1017428
18:00−7ssw119075 0.1 101921
21:00−8ssw337070 0.2 102233
10 march, wed
wed1000:00−9ssw337054 0.2 102334
03:00−10ssw337951 0.4 102350
06:00−10ssw336860 0.1 102430
09:00−5ne118565 0.1 1022261
12:00−4ne339090 0.6 1020500
15:00−4ne339694 2.1 1018370
18:00−5ne2399100 2.1 1019217
21:00−7ne2398100 3.8 1019200
11 march, thu
thu1100:00−7nne1298100 1.1 101766
03:00−8nnw1298100 2.8 101694
06:00−9wsw2296100 2.8 101778
09:00−7nne2397100 5.8 1018383
12:00−7nne4498100 3.0 1018510
15:00−8ne4598100 7.3 1018524
18:00−10nne2398100 4.1 1021289
21:00−13nnw0298100 6.1 102466